• Em Portugal
  • Lista de países
  • Para 7 dias
  • Temperatura da água
  • Mapas de satélite
  • Mapa do tempo
  • Widgets de tempo
  • user-avatar
    Iniciar Sessão

    Previsão horária em Podwolczanka

    Hoje, 18 Outubro, Quinta-feira

    Tempo Temperatura Precipitação Vento Pressão Humidade
    00:00 +10°C° 0 mm 2 m/s 750 mmHg 68%
    01:00 +10°C° 0 mm 2 m/s 750 mmHg 70%
    02:00 +9°C° 0 mm 2 m/s 750 mmHg 76%
    03:00 +9°C° 0 mm 2 m/s 749 mmHg 78%
    04:00 +9°C° 0 mm 2 m/s 749 mmHg 81%
    05:00 +8°C° 0 mm 2 m/s 749 mmHg 83%
    06:00 +9°C° 0 mm 2 m/s 749 mmHg 84%
    07:00 +9°C° 0 mm 2 m/s 749 mmHg 84%
    08:00 +9°C° 0 mm 2 m/s 748 mmHg 85%
    09:00 +12°C° 0 mm 2 m/s 748 mmHg 77%
    10:00 +14°C° 0 mm 2 m/s 748 mmHg 68%
    11:00 +16°C° 0 mm 2 m/s 748 mmHg 60%
    12:00 +17°C° 0 mm 2 m/s 748 mmHg 56%
    13:00 +18°C° 0 mm 2 m/s 748 mmHg 52%
    14:00 +19°C° 0 mm 2 m/s 748 mmHg 47%
    15:00 +19°C° 0 mm 1 m/s 747 mmHg 51%
    16:00 +18°C° 0 mm 1 m/s 747 mmHg 56%
    17:00 +16°C° 0 mm 1 m/s 747 mmHg 60%
    18:00 +15°C° 0 mm 1 m/s 747 mmHg 62%
    19:00 +14°C° 0 mm 1 m/s 747 mmHg 65%
    20:00 +13°C° 0 mm 1 m/s 747 mmHg 68%
    21:00 +13°C° 0 mm 1 m/s 747 mmHg 69%
    22:00 +12°C° 0 mm 1 m/s 747 mmHg 71%
    23:00 +12°C° 0 mm 1 m/s 747 mmHg 72%

    Amanhã, 19 Outubro, Sexta-feira

    Tempo Temperatura Precipitação Vento Pressão Humidade
    00:00 +11°C° 0 mm 1 m/s 747 mmHg 75%
    01:00 +11°C° 0 mm 1 m/s 747 mmHg 77%
    02:00 +11°C° 0 mm 1 m/s 747 mmHg 80%
    03:00 +10°C° 0 mm 1 m/s 748 mmHg 83%
    04:00 +9°C° 0 mm 2 m/s 748 mmHg 85%
    05:00 +9°C° 0 mm 2 m/s 748 mmHg 88%
    06:00 +8°C° 0 mm 2 m/s 748 mmHg 90%
    07:00 +8°C° 0 mm 2 m/s 748 mmHg 92%
    08:00 +8°C° 0 mm 2 m/s 749 mmHg 93%
    09:00 +9°C° 0 mm 2 m/s 749 mmHg 88%
    10:00 +12°C° 0 mm 2 m/s 749 mmHg 84%
    11:00 +12°C° 0 mm 3 m/s 749 mmHg 79%
    12:00 +12°C° 0 mm 3 m/s 749 mmHg 77%
    13:00 +12°C° 0 mm 3 m/s 749 mmHg 76%
    14:00 +13°C° 0 mm 3 m/s 749 mmHg 75%
    15:00 +13°C° 0 mm 2 m/s 750 mmHg 76%
    16:00 +12°C° 0 mm 2 m/s 750 mmHg 77%
    17:00 +12°C° 0 mm 2 m/s 750 mmHg 77%
    18:00 +10°C° 0 mm 2 m/s 750 mmHg 80%
    19:00 +9°C° 0 mm 2 m/s 751 mmHg 83%
    20:00 +9°C° 0 mm 1 m/s 751 mmHg 86%
    21:00 +8°C° 0 mm 1 m/s 751 mmHg 87%
    22:00 +7°C° 0 mm 1 m/s 751 mmHg 89%
    23:00 +7°C° 0 mm 1 m/s 751 mmHg 90%

    Depois de amanhã, 20 Outubro, Sábado

    Tempo Temperatura Precipitação Vento Pressão Humidade
    00:00 +7°C° 0 mm 1 m/s 751 mmHg 91%
    01:00 +6°C° 0 mm 1 m/s 751 mmHg 91%
    02:00 +6°C° 0 mm 1 m/s 751 mmHg 92%
    03:00 +6°C° 0 mm 1 m/s 751 mmHg 93%
    04:00 +5°C° 0 mm 1 m/s 751 mmHg 93%
    05:00 +5°C° 0 mm 1 m/s 751 mmHg 93%
    06:00 +4°C° 0 mm 2 m/s 752 mmHg 93%
    07:00 +4°C° 0 mm 2 m/s 752 mmHg 93%
    08:00 +4°C° 0 mm 2 m/s 752 mmHg 93%
    09:00 +6°C° 0 mm 2 m/s 752 mmHg 85%
    10:00 +8°C° 0 mm 2 m/s 752 mmHg 77%
    11:00 +10°C° 0 mm 3 m/s 752 mmHg 70%
    12:00 +10°C° 0 mm 3 m/s 752 mmHg 68%
    13:00 +11°C° 0 mm 4 m/s 752 mmHg 67%
    14:00 +11°C° 0 mm 4 m/s 752 mmHg 66%
    15:00 +11°C° 0 mm 4 m/s 752 mmHg 68%
    16:00 +11°C° 0 mm 4 m/s 751 mmHg 70%
    17:00 +10°C° 0 mm 4 m/s 751 mmHg 72%
    18:00 +10°C° 0 mm 4 m/s 751 mmHg 73%
    19:00 +8°C° 0 mm 4 m/s 751 mmHg 74%
    20:00 +8°C° 0 mm 5 m/s 751 mmHg 74%
    21:00 +8°C° 0.1 mm 4 m/s 751 mmHg 79%
    22:00 +7°C° 0.1 mm 4 m/s 751 mmHg 84%
    23:00 +7°C° 0.1 mm 4 m/s 751 mmHg 88%

    21 Outubro, Domingo

    Tempo Temperatura Precipitação Vento Pressão Humidade
    00:00 +6°C° 0 mm 4 m/s 751 mmHg 90%
    01:00 +6°C° 0 mm 4 m/s 751 mmHg 92%
    02:00 +5°C° 0 mm 3 m/s 751 mmHg 93%
    03:00 +5°C° 0 mm 3 m/s 751 mmHg 93%
    04:00 +4°C° 0 mm 3 m/s 751 mmHg 93%
    05:00 +4°C° 0 mm 3 m/s 752 mmHg 93%
    06:00 +4°C° 0 mm 3 m/s 752 mmHg 93%
    07:00 +4°C° 0 mm 3 m/s 752 mmHg 92%
    08:00 +4°C° 0 mm 3 m/s 752 mmHg 91%
    09:00 +7°C° 0 mm 3 m/s 753 mmHg 83%
    10:00 +8°C° 0 mm 3 m/s 753 mmHg 75%
    11:00 +10°C° 0 mm 4 m/s 753 mmHg 66%
    12:00 +11°C° 0 mm 3 m/s 753 mmHg 63%
    13:00 +11°C° 0 mm 3 m/s 753 mmHg 60%
    14:00 +12°C° 0 mm 3 m/s 752 mmHg 56%
    15:00 +12°C° 0 mm 2 m/s 752 mmHg 61%
    16:00 +10°C° 0 mm 2 m/s 752 mmHg 65%
    17:00 +10°C° 0 mm 1 m/s 752 mmHg 69%
    18:00 +9°C° 0 mm 1 m/s 752 mmHg 73%
    19:00 +9°C° 0 mm 1 m/s 752 mmHg 77%
    20:00 +8°C° 0 mm 1 m/s 752 mmHg 80%
    21:00 +7°C° 0 mm 2 m/s 752 mmHg 82%
    22:00 +7°C° 0 mm 2 m/s 752 mmHg 84%
    23:00 +7°C° 0 mm 2 m/s 752 mmHg 85%

    22 Outubro, Segunda-feira

    Tempo Temperatura Precipitação Vento Pressão Humidade
    00:00 +8°C° 0 mm 3 m/s 751 mmHg 86%
    01:00 +8°C° 0 mm 3 m/s 751 mmHg 86%
    02:00 +8°C° 0 mm 3 m/s 751 mmHg 86%
    03:00 +8°C° 0 mm 4 m/s 750 mmHg 86%
    04:00 +8°C° 0 mm 4 m/s 750 mmHg 86%
    05:00 +8°C° 0 mm 4 m/s 750 mmHg 85%
    06:00 +8°C° 0 mm 5 m/s 749 mmHg 84%
    07:00 +8°C° 0 mm 5 m/s 749 mmHg 83%
    08:00 +8°C° 0 mm 5 m/s 749 mmHg 82%
    09:00 +9°C° 0 mm 5 m/s 749 mmHg 77%
    10:00 +9°C° 0 mm 6 m/s 748 mmHg 72%
    11:00 +10°C° 0 mm 6 m/s 748 mmHg 67%
    12:00 +10°C° 0.3 mm 6 m/s 748 mmHg 70%
    13:00 +9°C° 0.3 mm 5 m/s 748 mmHg 74%
    14:00 +9°C° 0.3 mm 5 m/s 748 mmHg 77%
    15:00 +8°C° 0.3 mm 5 m/s 748 mmHg 79%
    16:00 +8°C° 0.3 mm 4 m/s 747 mmHg 82%
    17:00 +8°C° 0.3 mm 4 m/s 747 mmHg 84%
    18:00 +8°C° 0.1 mm 3 m/s 747 mmHg 86%
    19:00 +8°C° 0.1 mm 3 m/s 747 mmHg 88%
    20:00 +7°C° 0.1 mm 3 m/s 747 mmHg 89%
    21:00 +7°C° 0 mm 3 m/s 747 mmHg 88%
    22:00 +7°C° 0 mm 3 m/s 747 mmHg 87%
    23:00 +7°C° 0 mm 3 m/s 746 mmHg 86%

    23 Outubro, Terça-feira

    Tempo Temperatura Precipitação Vento Pressão Humidade
    00:00 +7°C° 0 mm 3 m/s 746 mmHg 84%
    01:00 +7°C° 0 mm 3 m/s 746 mmHg 81%
    02:00 +5°C° 0 mm 3 m/s 745 mmHg 79%
    03:00 +5°C° 0.1 mm 4 m/s 745 mmHg 81%
    04:00 +5°C° 0.1 mm 4 m/s 745 mmHg 82%
    05:00 +5°C° 0.1 mm 4 m/s 744 mmHg 84%
    06:00 +4°C° 0 mm 4 m/s 744 mmHg 84%
    07:00 +4°C° 0 mm 4 m/s 744 mmHg 84%
    08:00 +4°C° 0 mm 4 m/s 743 mmHg 85%
    09:00 +5°C° 0 mm 5 m/s 743 mmHg 78%
    10:00 +6°C° 0 mm 5 m/s 743 mmHg 72%
    11:00 +7°C° 0 mm 5 m/s 743 mmHg 66%
    12:00 +7°C° 0 mm 5 m/s 743 mmHg 63%
    13:00 +8°C° 0 mm 5 m/s 742 mmHg 60%
    14:00 +8°C° 0 mm 5 m/s 742 mmHg 57%
    15:00 +8°C° 0 mm 4 m/s 741 mmHg 62%
    16:00 +8°C° 0 mm 3 m/s 741 mmHg 66%
    17:00 +7°C° 0 mm 2 m/s 741 mmHg 71%
    18:00 +7°C° 0.5 mm 3 m/s 740 mmHg 75%
    19:00 +5°C° 0.5 mm 3 m/s 740 mmHg 79%
    20:00 +5°C° 0.5 mm 3 m/s 740 mmHg 83%
    21:00 +5°C° 0.8 mm 4 m/s 740 mmHg 82%
    22:00 +5°C° 0.8 mm 4 m/s 740 mmHg 81%
    23:00 +5°C° 0.8 mm 5 m/s 739 mmHg 81%
    Mostrar mais